Regional Weather Roundup
Issued by NWS Cleveland, OH

Home | Current Version | Previous Version | Graphics & Text | Print | Product List | Glossary On
Versions: 1 2 3 4 5 6 7 8 9 10 11 12 13 14 15 16 17 18 19 20 21 22 23 24 25 26 27 28 29 30 31 32 33 34 35 36 37 38 39 40 41 42 43 44 45 46 47 48 49 50
000
ASUS41 KCLE 211010
RWRCLE
OHIO REGIONAL WEATHER ROUNDUP
NATIONAL WEATHER SERVICE WILMINGTON, OH
600 AM EDT TUE APR 21 2015

NOTE: "FAIR" INDICATES FEW OR NO CLOUDS BELOW 12,000 FEET WITH NO
SIGNIFICANT WEATHER AND/OR OBSTRUCTIONS TO VISIBILITY.

OHZ001>008-015>018-024>027-034-035-043-044-211100-
   NORTHWEST OHIO

CITY           SKY/WX    TMP DP  RH WIND       PRES   REMARKS
DEFIANCE       PTCLDY    42  34  73 SW12      29.64F
FINDLAY        PTCLDY    42  33  70 S12       29.66F
TOLEDO EXPRESS MOCLDY    42  35  76 SW9       29.63S
TOLEDO EXEC    MOCLDY    42  35  76 SW14      29.64F
LIMA           CLEAR     43  34  70 S14G20    29.68F
$$

OHZ009>014-019>023-028>033-038-089-211100-
   NORTHEAST OHIO

CITY           SKY/WX    TMP DP  RH WIND       PRES   REMARKS
CLE-HOPKINS    PTCLDY    43  34  70 SW10      29.69S
CLE-LAKEFRONT  CLOUDY    46  34  62 SW14      29.67S
CUY CO. ARPT   NOT AVBL
LORAIN-ELYRIA  MOCLDY    43  35  73 SW15      29.68S
ASHTABULA      PTCLDY    42  31  64 SW10      29.67R
AKRON-CANTON   CLOUDY    44  33  65 SW14      29.70S
WOOSTER        PTCLDY    42  34  73 SW10      29.71S
MANSFIELD      MOCLDY    42  34  73 SW15G23   29.69S
YOUNGSTOWN     PTCLDY    42  31  64 SW13      29.69R
$$

OHZ042-051>053-060>062-070>072-077>081-211100-
  SOUTHWEST OHIO

CITY           SKY/WX    TMP DP  RH WIND       PRES   REMARKS
CINC-COVINGTON PTCLDY    42  34  73 SW6       29.80S
CINC-LUNKEN    CLEAR     41  37  86 S8        29.82S
HAMILTON       CLEAR     45  36  70 SW6       29.80S
DAYTON         CLEAR     43  34  70 SW12      29.75S
WRIGHT-PAT AFB CLEAR     42  34  71 SW12      29.75S
DAYTON GENERAL CLEAR     42  34  73 S10       29.76S
WILMINGTON     CLEAR     40  32  73 SW10      29.78R
$$

OHZ036-037-039>041-045>050-054>059-063>069-073>076-082>088-211100-
  CENTRAL AND SOUTHEAST OHIO

CITY           SKY/WX    TMP DP  RH WIND       PRES   REMARKS
COLUMBUS       MOCLDY    43  35  73 SW8       29.76S
OSU AIRPORT    PTCLDY    42  33  70 SW7       29.75S
BOLTON FIELD   PTCLDY    40  36  85 SW8       29.77S
RICKENBACK AFB MOCLDY    42  36  78 SW9       29.77S
NEWARK         MOCLDY    45  35  68 SW22G32   29.76R
MARION         MOCLDY    42  32  67 SW15      29.72S
LANCASTER      PTCLDY    44  36  73 SW7       29.77S
ZANESVILLE     CLEAR     43  33  68 SW8       29.76S
NEW PHILLY     CLOUDY    43  35  73 W9        29.75R
$$



USA.gov is the U.S. government's official web portal to all federal, state and local government web resources and services.